This is the latest recevied weather packets stored in our database for station/object N1ORT. If no packets are shown the sender has not sent any weather packets the latest 10 day(s).
| Time | Temp. | Humidity | Pressure | Rain* | Wind** | Luminosity | Snow |
|---|---|---|---|---|---|---|---|
| 1777818296 | 8.33° C | 82% | 1004.3 hPa | 0 mm | - | 201 W/m² | - |
| 1777817992 | 7.78° C | 82% | 1004.3 hPa | 0 mm | - | 267 W/m² | - |
| 1777817690 | 7.78° C | 82% | 1004.3 hPa | 0 mm | - | 144 W/m² | - |
| 1777817387 | 7.78° C | 83% | 1004.4 hPa | 0 mm | - | 133 W/m² | - |
| 1777817083 | 7.22° C | 83% | 1004.4 hPa | 0 mm | - | 109 W/m² | - |
| 1777816779 | 7.22° C | 84% | 1004.4 hPa | 0 mm | - | 99 W/m² | - |
| 1777816478 | 7.78° C | 84% | 1004.5 hPa | 0 mm | - | 91 W/m² | - |
| 1777816175 | 7.78° C | 85% | 1004.4 hPa | 0 mm | - | 119 W/m² | - |
| 1777815872 | 7.78° C | 85% | 1004.4 hPa | 0 mm | - | 111 W/m² | - |
| 1777815570 | 7.78° C | 86% | 1004.5 hPa | 0 mm | - | 109 W/m² | - |
| 1777815267 | 7.78° C | 85% | 1004.5 hPa | 0 mm | - | 123 W/m² | - |
| 1777814962 | 7.22° C | 85% | 1004.5 hPa | 0 mm | - | 153 W/m² | - |
| 1777814660 | 7.78° C | 86% | 1004.7 hPa | 0 mm | - | 95 W/m² | - |
| 1777814356 | 7.78° C | 86% | 1004.9 hPa | 0 mm | - | 248 W/m² | - |
| 1777814053 | 7.78° C | 88% | 1004.7 hPa | 0 mm | - | 214 W/m² | - |
| 1777813750 | 7.22° C | 86% | 1004.6 hPa | 0 mm | - | 254 W/m² | - |
| 1777813448 | 7.22° C | 87% | 1004.8 hPa | 0 mm | - | 411 W/m² | - |
| 1777813145 | 7.22° C | 87% | 1004.9 hPa | 0 mm | - | 290 W/m² | - |
| 1777812843 | 6.67° C | 87% | 1004.7 hPa | 0 mm | - | 223 W/m² | - |
| 1777812539 | 7.22° C | 87% | 1004.7 hPa | 0 mm | - | 304 W/m² | - |
| 1777812237 | 7.22° C | 88% | 1004.7 hPa | 0 mm | - | 321 W/m² | - |
| 1777811935 | 6.67° C | 90% | 1004.8 hPa | 0 mm | - | 304 W/m² | - |
| 1777811634 | 6.67° C | 91% | 1004.9 hPa | 0 mm | - | 180 W/m² | - |
| 1777811333 | 6.11° C | 92% | 1004.8 hPa | 0 mm | - | 152 W/m² | - |
| 1777811031 | 6.11° C | 93% | 1004.9 hPa | 0 mm | - | 137 W/m² | - |
* Rain latest hour (hover to see other rain measurements)
** Current wind speed in m/s (hover to see current wind gust speed)